Starlink 32440

operational
NORAD ID: 61714 Int'l Des: 2024-196 Owner: SPXS Country: US Constellation: starlink
LEOCIRCULAR

关于 Starlink 32440

正在加载描述...

实时位置

正在加载3D地球...

即将过境

高度历史

Altitude vs Time

uPlot chart will show altitude changes over time

两行轨道根数

1 61714U 24196H 25259.08649863 -.00001039 00000-0 -22978-4 0 9995
2 61714 53.1599 192.3852 0001518 78.7019 281.4152 15.30179488 50420
Epoch: Sep 16, 2025 • Age: 14 hours

当前状态

高度 476.8 km
速度 7.63 km/s
星下点 33.68°N, 22.1°W
发射日期 Oct 30, 2024
运行时间 0.8 years
类型 internet

技术详情

分类 Payload
质量 730.00 kg
干质量 700.00 kg
总质量 730.00 kg
长度 0.30 m
直径 4.10 m
跨度 29.00 m
形状 Box + pan
制造商 SPXS
平台类型 Starlink V2M
阶段状态 In Orbit
所有者/国家 SPXS/US

大型星座

Loading constellations...